GEFSSGP_500_meanwind_174.txt.gz
Wind_Speed
10 10 10 11 13 14 15 16 17 16 15 14 13 12 11 10 9 8 8 8 7 5 5 6 7 7 8 9 10 10 10 10 10 9 9 8 8 8 7 7 7 7 7 7 7 7 7 7 7
8 8 9 10 12 13 15 17 17 16 14 13 13 11 10 9 8 8 7 7 6 5 5 5 6 7 8 9 9 9 9 9 9 9 9 8 8 7 7 7 7 7 7 7 7 7 6 7 7
6 6 7 9 11 12 14 15 16 15 14 14 13 12 10 9 7 7 7 7 5 4 4 5 6 6 7 8 8 9 9 9 9 9 9 8 8 7 7 7 7 7 7 6 6 6 6 6 6
4 5 5 7 10 11 13 14 15 15 14 14 13 12 11 9 7 6 6 6 5 4 4 5 5 5 6 7 7 8 8 8 8 8 8 8 8 8 7 7 7 6 6 6 6 5 5 5 5
2 3 4 6 7 9 11 12 13 13 13 13 12 11 10 9 6 6 5 5 4 3 4 5 6 6 6 6 7 7 7 7 7 7 8 8 7 7 7 7 7 7 6 6 5 5 4 4 4
2 2 3 4 6 7 9 10 11 12 12 12 12 11 10 9 8 6 5 5 4 4 4 4 4 4 5 5 6 6 6 6 6 7 7 7 7 7 7 7 7 7 6 6 5 5 4 4 4
0 1 2 2 4 6 8 10 11 12 11 11 11 11 11 10 9 7 6 5 4 4 4 4 4 4 4 5 5 5 5 5 6 6 6 6 7 7 7 7 7 6 7 6 5 5 5 4 4
1 1 1 2 4 5 7 9 10 10 10 10 10 10 10 10 9 8 6 5 4 4 4 4 4 4 4 4 4 4 5 5 5 6 6 6 6 6 6 6 6 6 6 6 5 5 5 5 4
2 2 2 3 4 4 6 8 9 9 9 10 10 10 10 9 8 8 7 6 5 5 5 4 4 3 3 4 4 4 4 4 5 5 5 5 5 5 5 5 5 6 6 6 5 5 5 5 4
4 3 3 2 3 4 5 7 8 7 8 9 9 9 9 9 8 7 7 6 5 4 4 3 3 2 2 3 3 3 3 4 4 4 4 4 4 4 4 4 5 5 5 5 5 4 4 5 4
5 5 4 4 4 5 5 6 8 8 7 8 8 9 9 9 8 7 6 6 5 4 3 3 2 1 1 2 3 3 3 3 3 3 3 3 4 4 3 3 4 4 4 4 4 4 4 4 4
7 6 6 5 5 5 6 6 6 7 7 8 9 9 9 9 8 7 7 6 5 4 3 2 2 1 1 2 3 4 4 3 3 2 1 2 2 2 2 3 3 3 3 3 4 3 3 3 3
9 8 7 6 6 5 6 6 6 7 7 8 8 8 8 8 7 7 7 7 6 4 3 2 1 1 1 3 4 4 4 3 3 2 2 1 0 1 1 1 1 2 2 2 3 3 2 2 2
10 10 9 8 7 6 6 6 6 7 7 8 8 7 7 7 6 7 8 8 6 5 4 3 2 2 2 3 4 5 5 4 4 3 3 2 1 1 1 1 1 1 1 2 2 2 2 2 2
12 12 11 11 10 9 8 7 7 8 8 8 8 7 7 7 7 7 8 8 6 5 5 4 3 3 4 4 5 6 6 6 5 4 4 3 3 3 2 2 2 2 1 1 1 2 1 1 0
14 13 13 12 12 11 9 8 7 7 8 8 7 7 7 7 7 8 8 8 6 6 6 5 3 3 4 5 6 6 7 8 7 6 5 5 5 4 4 4 4 3 3 2 1 1 1 1 0
16 15 14 14 13 12 10 7 7 7 8 8 7 7 6 7 7 8 8 8 7 7 7 5 4 5 5 6 6 6 7 8 8 7 7 7 6 6 6 6 5 5 5 4 3 3 2 2 1
17 16 15 15 15 13 11 9 8 8 8 8 8 8 7 7 8 9 8 8 8 9 8 6 6 6 6 6 7 7 8 9 9 8 8 7 7 7 7 8 7 7 7 6 5 5 4 4 3
19 17 16 16 16 15 13 11 10 10 9 9 9 9 8 8 8 9 9 9 9 9 8 7 7 8 8 8 7 8 8 9 10 9 8 8 8 8 8 9 10 9 9 8 7 6 6 5 5
20 19 18 18 18 17 15 13 12 11 10 10 9 9 9 9 9 10 10 9 8 9 8 8 8 9 9 8 8 9 9 9 10 10 9 9 9 9 10 9 10 10 9 9 9 8 8 8 7
21 20 19 20 19 19 17 15 13 12 11 10 10 10 10 10 10 10 9 9 9 9 8 8 8 9 10 9 9 10 10 10 11 10 10 10 10 10 10 11 11 11 11 11 11 10 10 10 10
22 21 22 21 20 20 18 16 14 12 11 10 11 11 10 10 10 9 9 9 8 8 8 8 9 10 11 11 11 11 11 11 11 12 11 11 11 11 12 13 12 12 13 13 13 13 13 13 12
23 24 24 23 22 20 19 18 14 13 11 10 11 11 10 10 10 9 9 9 9 8 8 9 10 9 10 11 12 12 12 12 12 13 12 12 12 13 14 14 14 14 14 15 16 15 15 14 14
26 26 26 25 24 22 19 19 15 13 11 11 11 11 11 11 11 11 10 9 9 8 9 9 10 9 9 11 12 12 12 13 13 13 13 14 14 14 14 15 16 16 17 17 18 17 16 16 16
28 27 27 26 25 23 21 20 16 14 12 12 12 12 12 12 12 12 11 10 10 9 8 9 9 9 9 10 11 12 13 13 14 14 14 14 14 15 16 16 17 17 17 18 18 18 18 17 17
28 28 27 26 25 23 22 21 17 15 14 13 13 13 12 12 12 12 12 11 10 9 8 8 9 9 9 11 11 11 12 12 13 13 14 14 14 15 15 15 16 17 17 18 19 19 18 18 18
29 28 28 27 25 24 23 20 18 15 14 13 13 12 11 12 12 12 10 10 10 9 9 10 9 9 10 11 11 11 11 11 12 13 13 13 14 14 14 15 16 16 17 18 18 19 19 19 20
30 28 28 27 26 25 23 20 18 16 15 14 13 12 11 12 13 11 9 10 10 9 9 10 10 10 11 11 12 10 11 11 11 11 12 13 13 13 14 15 16 16 17 17 18 19 20 20 20
29 29 28 27 26 24 23 20 17 16 15 14 12 10 10 11 11 9 9 10 9 9 9 10 10 10 10 11 10 11 11 11 12 12 13 13 13 14 15 15 16 17 17 18 18 18 19 20 20
29 29 28 27 26 24 23 20 17 16 15 13 11 11 11 11 10 9 9 8 8 8 9 9 8 9 10 11 11 11 12 12 13 14 14 13 14 14 15 15 16 17 17 18 18 18 18 19 20

GEFSSGP_500_meanwind_180.txt.gz
Wind_Speed
15 15 14 14 15 13 11 12 13 13 13 13 13 12 12 11 11 11 11 11 10 10 9 9 8 8 8 9 10 10 11 11 11 11 11 11 11 11 10 10 10 10 10 9 9 8 8 8 8
14 13 13 14 14 10 10 11 12 12 12 12 12 12 11 11 10 10 10 10 9 9 8 8 8 7 8 8 9 10 10 11 11 11 11 10 10 10 10 9 9 9 9 8 8 8 8 8 8
13 12 12 13 11 10 10 10 11 11 11 11 12 12 11 10 9 8 8 9 8 7 7 7 6 7 7 8 9 9 10 10 10 10 10 10 9 9 9 8 8 8 8 8 7 7 7 7 7
11 11 12 12 9 9 9 10 10 11 11 11 11 11 11 10 9 8 7 7 7 6 6 6 5 6 7 7 8 9 9 10 10 10 10 9 9 9 8 8 8 8 7 7 7 6 6 6 6
9 11 11 9 9 9 9 9 9 10 10 10 10 11 11 10 9 8 7 7 6 5 4 4 4 5 6 7 7 8 9 9 9 9 9 9 9 8 8 8 8 8 7 7 6 6 6 5 5
9 10 9 6 7 8 9 9 9 9 10 9 9 10 11 10 9 8 7 6 6 5 4 3 4 4 5 6 7 7 8 8 8 8 8 8 8 8 8 8 8 7 7 6 6 5 5 5 4
7 8 7 6 6 7 8 9 9 9 9 9 8 9 10 10 9 8 7 6 5 5 4 3 2 3 4 5 6 6 7 7 7 8 8 7 8 8 8 7 7 7 6 6 6 5 5 4 4
5 6 5 5 5 6 7 8 8 9 9 9 8 8 9 9 8 7 7 6 5 4 3 2 2 3 4 5 6 6 6 7 7 7 7 7 7 7 7 7 6 6 6 6 5 5 5 4 4
4 5 3 3 4 5 6 7 8 8 8 8 9 9 8 8 8 7 6 5 4 3 2 2 2 3 4 4 5 5 6 7 7 6 7 7 6 6 6 6 5 6 5 5 5 5 5 5 4
4 4 3 3 4 5 5 6 6 7 8 8 8 8 7 7 7 6 5 5 4 3 2 2 2 2 3 3 4 4 5 6 6 6 6 6 6 6 5 5 5 5 5 5 4 4 5 4 4
3 3 3 3 3 4 4 5 5 6 7 7 7 7 7 7 7 6 6 5 3 2 1 1 1 2 2 2 3 4 5 5 5 5 5 5 4 4 4 4 4 4 4 4 4 4 4 4 4
2 1 1 1 2 3 3 4 4 5 6 6 7 7 6 6 6 6 6 4 3 2 2 1 1 1 1 2 4 4 4 4 4 4 4 4 3 3 3 3 3 3 3 3 4 4 3 3 3
3 2 1 1 0 0 1 2 2 3 4 5 6 6 6 6 6 6 6 5 4 3 2 2 2 2 2 3 4 4 4 4 4 4 3 3 2 2 2 2 2 2 2 2 3 3 3 2 3
5 4 3 3 2 2 1 1 1 2 4 5 5 5 5 5 5 5 5 5 5 4 3 3 3 3 3 4 5 5 5 5 4 4 4 3 3 2 2 2 2 2 2 1 2 2 2 2 2
7 7 6 5 4 3 2 2 2 3 3 4 5 5 4 4 5 5 6 6 5 5 4 4 4 5 5 5 6 6 6 6 6 5 5 4 4 3 3 3 2 2 2 1 1 1 1 1 1
9 8 8 7 6 4 3 3 4 4 4 4 5 5 5 5 6 6 7 7 6 6 6 5 5 5 7 7 7 7 7 7 7 7 6 6 5 5 4 4 3 3 3 2 2 1 1 1 0
11 10 10 9 7 6 5 5 5 4 4 5 5 5 5 6 7 7 8 8 8 7 6 6 5 6 7 8 8 8 8 8 8 7 7 7 6 6 5 5 5 5 5 4 3 2 1 1 1
13 12 12 11 9 7 6 6 5 5 5 6 6 6 6 7 8 8 9 9 9 8 7 7 7 7 6 7 8 8 9 8 9 8 8 8 7 6 6 6 6 6 6 6 5 4 4 3 3
15 14 14 13 11 10 8 7 7 6 6 6 6 7 7 8 8 9 10 10 10 9 9 8 8 7 8 8 8 8 9 10 10 9 8 8 8 8 7 6 6 7 7 7 7 6 6 5 5
16 15 15 14 12 12 10 9 8 7 7 7 8 8 8 8 9 10 11 11 10 10 9 9 9 9 9 9 9 9 9 10 10 9 9 9 9 9 9 8 8 8 8 8 8 8 7 7 7
17 17 16 15 14 13 11 10 10 8 8 8 9 9 9 9 10 11 11 11 11 11 10 9 9 10 10 10 10 10 9 10 10 10 10 10 10 10 10 10 9 10 10 10 10 10 10 9 9
19 18 17 16 15 14 12 11 11 10 9 9 9 9 9 9 10 11 11 11 12 11 11 11 10 10 10 11 11 10 10 10 11 11 11 11 11 11 12 11 11 12 11 12 12 12 12 12 12
21 19 18 17 16 16 14 12 12 11 10 10 9 9 9 9 10 11 12 12 11 11 11 11 11 10 10 10 11 11 12 13 12 12 13 13 13 12 13 13 13 13 14 14 14 13 14 13 14
21 20 19 18 17 17 15 14 13 12 11 11 10 10 9 10 10 11 12 12 12 12 12 11 11 10 10 10 10 11 13 14 14 14 13 14 14 14 14 15 15 15 15 15 15 16 16 16 16
22 20 19 19 19 18 17 15 14 13 12 11 11 11 10 10 11 12 13 13 12 12 12 12 11 11 11 11 11 11 12 13 13 14 14 15 15 15 15 15 15 15 15 16 17 17 17 17 17
23 22 21 19 17 18 18 16 15 14 13 12 12 12 11 11 12 12 13 12 12 12 12 12 11 11 11 11 12 12 12 13 13 14 14 14 15 15 15 15 15 15 16 16 17 18 18 18 19
26 24 23 21 20 18 18 16 15 14 13 12 12 12 12 13 13 13 13 12 12 12 12 11 11 11 11 12 12 12 12 13 13 14 14 15 14 14 14 14 15 16 16 17 18 18 18 18 18
28 26 25 23 21 18 17 16 14 14 13 13 13 13 13 14 14 13 13 12 11 11 11 10 10 10 11 11 11 12 12 13 13 14 15 16 15 15 15 15 15 16 16 17 18 18 18 18 18
28 27 26 24 22 18 15 15 15 14 13 13 13 13 14 14 13 13 12 11 11 10 10 9 10 10 10 11 11 11 12 12 12 13 14 14 15 15 16 15 16 16 16 17 17 18 18 19 19
28 27 25 24 22 19 16 15 16 15 14 14 14 13 13 13 13 13 12 11 10 10 10 9 10 10 11 11 11 11 12 12 13 13 14 14 14 14 15 15 16 16 17 17 18 18 19 19 20

GEFSSGP_500_meanwind_186.txt.gz
Wind_Speed
18 18 18 18 21 15 11 10 8 7 8 7 6 6 7 7 7 7 6 6 7 7 7 6 6 5 5 5 4 4 4 5 6 6 6 7 7 8 8 7 7 8 8 8 9 9 9 9 9
17 16 18 20 18 11 10 8 8 8 8 7 7 7 7 7 7 7 6 6 6 6 6 6 5 5 4 4 4 3 4 4 5 6 6 6 6 7 7 7 7 7 7 7 8 8 8 8 8
15 15 19 18 11 8 9 9 9 9 8 8 7 7 6 7 7 6 6 5 5 5 5 5 5 5 4 3 3 3 3 4 4 5 5 5 6 6 6 6 6 7 7 7 7 8 8 7 7
14 17 18 13 7 8 8 8 8 8 8 7 7 6 6 6 6 6 5 5 4 4 4 4 4 4 3 2 2 2 2 3 3 4 4 5 5 6 6 6 6 6 6 6 7 7 7 6 6
14 18 14 9 7 8 8 8 8 8 8 7 7 6 6 6 6 6 5 5 4 4 3 3 3 3 2 1 1 1 1 1 2 3 3 4 4 5 5 5 6 6 6 6 6 6 6 5 5
15 17 10 7 6 8 8 7 8 7 8 8 8 7 7 6 6 6 6 5 4 3 2 2 2 2 1 1 1 1 1 1 1 2 2 3 4 4 5 5 5 6 6 5 5 5 5 5 5
12 13 9 5 7 6 8 7 7 8 8 9 9 8 8 6 6 6 6 6 4 3 2 2 2 1 1 0 0 0 0 1 1 1 2 3 4 4 4 4 5 5 5 5 5 4 4 4 5
10 10 9 3 4 5 6 7 7 8 8 9 10 10 9 7 7 6 6 6 5 4 3 2 2 2 2 1 1 1 1 1 1 1 2 3 3 3 3 4 4 4 4 4 5 4 4 4 4
8 9 7 2 2 4 5 6 7 7 7 8 9 9 9 8 7 6 7 7 6 6 4 3 3 3 2 2 1 1 1 1 1 1 2 2 2 3 3 3 3 3 3 4 4 4 4 4 4
7 7 3 1 1 3 3 5 6 6 6 8 9 9 9 8 8 8 8 7 7 6 5 4 5 4 2 2 1 1 1 2 1 1 1 2 2 2 2 2 2 3 3 3 4 5 4 4 3
6 5 3 1 3 2 3 4 5 7 8 8 9 9 9 9 9 9 9 9 8 7 6 6 5 4 3 2 2 2 2 2 2 1 1 1 1 1 1 1 2 2 2 3 3 4 4 3 3
3 3 3 3 3 1 2 3 5 7 8 9 9 8 8 8 9 9 10 9 9 8 7 7 6 5 4 3 2 2 2 1 1 1 1 1 0 0 1 1 2 2 2 2 3 3 3 3 3
3 2 4 3 2 2 2 3 5 6 7 8 8 8 8 8 9 9 10 10 9 9 9 8 7 6 5 4 2 2 1 1 1 1 1 1 1 1 1 1 1 2 1 1 2 2 2 2 3
5 4 4 4 4 3 2 4 6 6 9 8 8 8 8 9 10 10 10 11 10 9 9 9 7 6 6 4 3 3 3 3 3 2 2 3 2 2 1 1 1 1 1 1 1 2 2 2 2
6 5 5 5 5 5 4 4 6 7 10 9 8 9 9 10 10 10 11 11 11 10 9 9 8 7 6 5 4 4 4 4 4 4 4 4 3 3 2 2 2 2 2 2 1 1 2 1 1
6 6 5 6 7 7 5 5 7 8 10 10 9 9 10 11 11 10 11 11 11 10 10 9 9 8 7 6 5 5 5 5 5 5 5 5 4 4 4 3 3 3 2 2 2 1 2 1 1
5 5 5 6 9 9 7 6 8 8 11 11 11 9 10 11 11 11 11 11 11 10 10 10 9 8 7 7 7 6 6 6 6 5 5 5 4 4 4 4 4 4 4 4 3 2 2 3 2
5 6 6 7 11 11 8 7 9 10 11 11 11 11 10 11 11 11 11 11 11 10 10 10 8 8 8 7 8 7 7 7 7 7 6 5 4 4 4 4 5 5 5 5 5 4 4 4 4
9 9 8 8 13 13 10 8 10 12 12 12 11 11 11 11 11 11 11 12 12 11 12 10 9 9 9 9 9 7 7 6 7 7 7 6 5 6 6 6 6 6 7 6 6 6 6 6 6
13 12 10 11 15 14 12 9 10 12 13 13 12 11 12 11 11 11 12 12 13 13 13 12 11 10 10 9 8 7 6 6 7 6 7 7 7 8 8 8 8 8 9 8 8 7 8 8 8
15 13 13 14 16 14 12 10 11 13 13 13 13 12 12 12 11 11 12 13 13 13 13 13 12 11 10 9 8 8 7 7 7 7 8 8 9 9 8 9 10 10 10 10 10 10 10 9 9
15 14 15 15 15 13 11 11 14 14 13 13 13 13 13 12 12 11 13 14 14 14 13 13 13 12 11 10 9 8 8 8 8 8 9 9 9 9 10 11 11 11 11 11 11 11 11 11 11
16 15 17 16 16 14 12 13 14 14 14 14 13 13 13 13 13 13 14 14 14 14 14 13 13 12 12 11 10 9 10 10 9 9 10 10 10 10 11 11 11 12 12 13 13 13 13 13 13
18 17 17 15 14 15 13 13 14 14 14 15 14 13 13 14 13 14 14 15 15 15 14 13 13 13 12 12 11 11 11 11 10 11 11 10 10 11 12 12 12 13 13 14 13 13 14 14 14
20 18 15 14 14 14 12 14 16 16 14 14 13 13 14 14 13 14 14 15 15 14 13 13 13 13 13 13 12 12 12 12 11 12 12 12 12 12 12 12 13 13 14 14 14 14 14 14 15
20 18 15 12 11 12 12 13 15 17 17 17 14 14 16 15 14 15 14 15 15 15 14 13 13 13 13 13 13 13 13 12 11 11 12 12 12 12 12 12 13 14 14 14 15 15 16 16 16
21 20 17 15 13 14 14 15 17 19 20 19 17 16 16 16 14 15 14 14 15 14 14 13 13 13 13 13 12 13 12 12 12 11 12 12 12 12 13 13 14 14 14 15 15 16 16 16 16
23 20 20 21 18 16 15 14 17 20 19 18 17 16 16 16 15 14 14 14 14 14 13 13 14 12 12 11 11 11 10 11 11 11 11 11 12 13 13 14 15 15 14 15 15 15 16 16 17
24 23 23 22 20 17 16 16 19 19 20 18 17 16 16 14 14 14 15 13 13 13 13 13 12 11 11 10 10 9 10 10 11 11 11 12 12 13 14 15 15 15 15 15 15 15 16 17 17
23 23 23 24 23 21 18 19 20 16 16 17 17 17 15 15 15 14 15 12 13 14 14 13 11 11 11 10 10 10 11 11 11 12 12 13 13 14 14 14 14 14 15 15 15 16 16 17 17

GEFSSGP_500_meanwind_192.txt.gz
Wind_Speed
15 15 15 16 18 17 18 19 18 17 15 15 14 14 13 12 11 10 9 8 9 10 10 9 9 9 9 8 7 7 6 6 6 6 6 7 7 7 8 8 8 8 8 8 8 8 8 9 9
14 14 15 17 18 18 19 19 18 17 16 15 14 14 13 11 11 10 9 9 9 9 9 9 9 9 8 8 7 7 6 6 6 6 6 6 6 6 7 7 7 7 8 8 8 8 8 8 8
13 13 16 19 18 18 19 19 18 17 16 15 14 14 12 12 12 10 10 9 9 9 9 9 8 8 7 7 7 6 6 6 5 5 5 5 5 5 6 6 7 7 7 7 7 7 7 8 8
11 12 15 17 18 19 19 19 18 16 16 16 15 14 13 12 12 11 11 10 9 9 8 8 7 7 6 6 6 6 6 5 5 5 5 5 5 5 5 5 6 6 6 7 7 7 7 7 7
9 10 13 15 16 18 18 17 17 16 16 16 16 14 13 13 12 11 12 11 10 9 8 7 7 6 6 6 6 6 6 5 5 5 4 4 4 5 5 5 5 5 6 6 6 6 6 6 7
7 9 11 14 15 16 17 18 17 16 16 16 16 15 14 12 12 11 11 11 10 9 8 7 7 6 5 5 5 5 5 5 5 5 4 4 5 5 5 5 5 5 5 6 6 6 6 6 6
6 7 11 12 14 14 16 17 16 15 16 15 16 15 14 13 11 11 12 11 10 9 8 7 7 5 4 4 4 5 5 5 5 5 4 4 5 4 4 4 5 5 5 5 6 6 6 6 6
6 7 9 10 13 13 14 15 15 14 15 15 16 16 15 13 12 11 11 10 9 8 7 7 7 6 4 4 4 4 4 4 4 4 4 4 4 4 4 4 4 5 5 5 5 5 6 6 6
7 7 9 9 11 12 12 14 14 14 15 15 16 16 15 14 12 12 11 10 9 8 7 7 7 6 5 3 3 3 3 3 3 3 3 3 3 4 4 4 5 5 5 5 5 6 6 6 6
6 6 7 7 8 9 10 12 13 14 14 15 16 16 15 14 13 12 12 11 10 9 8 8 7 6 5 3 3 3 3 2 2 3 3 3 3 3 3 4 4 4 4 4 5 5 5 6 5
4 3 4 5 6 8 10 10 10 12 13 14 15 15 15 14 13 12 12 11 10 9 8 8 7 7 5 3 2 2 3 2 2 2 2 2 2 2 3 3 3 4 4 4 4 5 5 5 5
4 3 2 4 5 7 9 9 10 11 12 13 14 14 14 14 13 13 12 11 10 9 9 8 7 7 5 4 3 3 3 3 1 1 2 2 2 2 3 3 3 3 3 3 4 4 5 5 5
4 3 2 1 3 5 8 9 10 11 12 12 13 14 14 14 14 13 12 11 11 10 9 9 8 7 6 5 4 3 3 2 2 1 1 1 2 2 2 3 3 3 3 3 3 3 4 4 4
5 4 3 1 2 4 7 9 9 10 10 11 12 13 13 13 14 13 12 12 12 11 10 9 8 7 6 6 5 4 4 3 2 1 1 0 1 1 1 2 2 2 3 3 2 2 2 2 2
5 5 4 2 2 4 6 8 9 9 10 11 12 13 13 13 14 13 13 12 12 11 10 9 8 7 6 5 4 5 5 4 3 2 1 1 2 1 1 1 1 2 2 2 2 1 1 1 1
5 5 4 2 2 4 6 7 9 9 10 11 12 13 13 13 13 13 12 11 12 11 11 9 8 6 5 5 4 4 3 3 3 2 1 1 1 1 1 1 1 1 0 0 1 1 0 0 1
7 4 4 3 3 5 6 8 8 9 9 11 11 12 13 13 12 12 11 10 10 10 11 10 8 7 6 4 4 3 2 2 2 1 1 0 1 1 1 1 1 1 1 1 1 1 2 2 2
9 6 5 4 3 5 7 8 8 9 8 10 11 12 12 12 12 11 11 10 10 10 10 9 9 7 6 5 3 3 3 3 2 1 1 1 1 2 2 2 2 2 2 2 2 3 3 3 3
12 9 6 4 4 5 7 7 8 8 8 9 11 11 11 11 11 11 10 9 9 9 9 9 8 7 6 5 4 3 3 3 2 2 3 3 3 3 3 3 3 3 3 3 3 3 4 5 5
14 11 8 5 4 5 8 9 9 8 8 9 10 11 11 11 12 11 10 9 9 9 9 9 8 8 6 5 5 3 3 3 3 3 4 4 4 4 4 5 5 4 4 4 4 5 6 6 6
15 12 10 8 6 7 9 10 11 9 9 10 11 11 11 10 11 11 11 10 10 9 10 10 9 8 7 6 6 5 4 4 4 5 4 5 6 6 6 7 7 6 7 7 7 7 7 8 8
15 13 12 12 10 10 11 11 11 10 9 10 12 11 10 10 11 11 11 10 10 10 11 11 10 8 7 6 5 5 5 5 5 5 6 7 7 7 8 8 8 8 8 9 9 9 9 9 10
16 15 15 14 13 13 13 13 12 12 12 11 12 12 12 12 12 12 10 10 10 11 11 11 10 9 8 7 6 5 5 6 6 6 7 7 7 7 8 9 9 10 10 10 11 11 11 11 11
18 17 17 17 16 15 14 15 14 13 12 12 13 13 13 14 15 13 11 11 11 11 11 12 11 9 8 7 7 6 7 7 7 7 7 7 8 9 9 10 10 11 12 13 13 14 13 12 12
21 19 19 19 17 14 14 16 14 12 13 13 13 13 13 14 15 13 11 12 11 11 11 11 10 9 8 8 8 7 8 8 8 8 8 8 9 10 10 11 11 12 13 13 14 15 14 13 13
21 21 20 19 17 14 13 13 12 12 12 12 13 13 13 14 14 12 10 11 11 11 11 10 9 8 8 8 8 7 8 8 8 7 7 8 9 10 11 11 12 12 13 14 14 13 13 14 14
22 21 20 20 19 17 14 13 12 13 13 13 13 14 15 14 13 13 12 12 12 11 11 10 10 9 8 8 8 7 7 7 6 6 7 8 8 10 11 12 12 12 13 13 14 13 13 14 14
23 21 22 22 20 18 16 14 12 12 13 14 15 15 14 14 12 13 13 12 11 11 11 10 9 8 8 7 7 7 7 7 6 6 7 8 8 9 10 12 12 12 13 13 13 13 14 14 14
23 23 24 23 21 19 17 14 14 14 14 15 15 16 15 13 12 11 11 12 12 11 11 10 9 7 7 6 6 7 7 7 6 6 7 8 9 10 10 11 12 12 12 12 13 12 12 13 14
23 23 24 24 23 21 21 18 17 16 16 17 16 15 15 12 11 11 11 11 12 11 11 10 9 8 7 6 6 7 8 7 7 7 8 9 9 10 11 11 11 11 11 12 12 12 12 13 14

GEFSSGP_500_meanwind_198.txt.gz
Wind_Speed
17 17 17 18 18 18 20 21 21 19 18 18 18 17 17 16 14 13 12 11 9 9 9 10 11 11 12 12 12 11 11 12 12 12 12 11 11 11 11 11 11 11 10 10 9 9 8 9 9
17 17 16 17 18 19 20 21 21 20 19 19 18 17 16 15 14 14 13 11 9 8 9 10 11 11 12 12 12 12 12 12 12 11 12 11 11 11 11 10 10 10 10 9 9 8 8 8 9
15 16 16 16 18 19 20 21 20 20 19 18 18 17 16 14 13 13 12 10 9 8 9 10 10 11 11 11 11 11 11 11 11 11 11 11 11 10 10 10 10 10 10 9 8 8 8 8 8
14 15 15 17 19 19 20 20 20 20 19 18 17 17 15 14 13 12 12 10 9 9 9 10 10 10 11 11 11 11 11 11 11 11 11 11 10 10 10 10 9 9 9 8 8 7 7 7 7
12 13 14 16 18 19 20 21 20 19 18 17 16 16 15 13 12 12 11 11 10 9 10 10 10 10 10 10 10 10 10 10 10 10 10 10 9 9 9 9 9 9 9 8 8 8 8 8 8
11 12 13 15 16 18 19 20 19 18 18 17 16 16 15 13 12 12 11 11 10 9 9 10 10 10 9 9 9 9 9 9 9 9 9 9 9 9 9 9 8 8 9 8 8 8 8 8 8
9 11 12 14 16 17 18 19 18 18 18 17 16 16 16 14 13 12 12 11 10 10 10 9 9 8 8 8 8 7 7 8 8 8 8 8 9 8 9 8 8 8 8 8 8 8 8 8 8
7 9 11 13 15 16 17 18 18 17 18 17 17 17 16 15 13 13 12 11 10 9 9 8 8 7 7 7 6 7 7 7 7 8 7 8 7 8 8 7 7 7 8 8 8 8 8 8 8
6 8 10 12 14 15 17 17 17 16 17 17 17 17 16 15 14 13 12 11 10 9 9 8 7 6 7 6 6 6 6 6 7 7 7 7 7 7 7 6 6 7 7 7 8 7 8 8 7
5 7 9 10 12 14 15 15 15 15 16 17 17 17 17 15 14 13 13 12 10 9 8 7 6 6 6 6 6 6 6 6 6 6 6 6 6 6 6 6 6 6 6 6 7 7 7 7 7
4 5 8 9 11 12 13 14 14 15 16 17 17 17 16 15 14 13 13 12 12 10 8 7 6 5 5 6 5 5 5 5 5 5 5 4 4 5 5 5 5 6 6 6 6 6 6 6 6
3 4 5 7 9 11 12 13 13 14 15 15 16 16 16 15 14 14 14 13 12 11 10 8 7 5 6 5 5 5 5 4 4 4 4 4 4 4 4 5 5 5 5 5 5 5 5 5 6
2 2 3 5 7 9 10 12 13 14 14 14 15 15 15 15 14 14 14 13 12 11 10 8 7 6 6 5 5 5 5 3 3 3 3 4 4 4 4 4 4 4 4 4 4 4 4 4 4
2 1 1 2 5 7 9 10 11 13 13 13 14 14 14 14 14 13 13 12 11 11 10 9 8 6 6 5 4 4 4 4 4 3 3 3 3 2 2 3 3 3 4 3 3 3 3 3 3
3 3 2 1 3 5 7 9 9 11 11 12 13 12 13 13 13 13 13 12 12 11 10 9 8 6 5 4 4 4 3 4 4 4 3 2 2 1 1 1 1 2 3 2 2 2 2 2 1
6 5 4 2 1 3 5 7 7 8 10 10 11 12 11 13 13 13 12 11 11 11 10 9 8 7 6 4 4 3 3 3 3 3 3 3 2 1 0 1 1 0 1 1 1 1 1 1 0
8 6 5 4 2 1 3 5 5 6 8 9 10 11 11 12 13 12 11 10 10 10 10 9 7 6 5 4 3 3 2 2 2 2 2 2 2 1 1 1 2 1 1 1 1 0 1 1 1
9 8 7 6 4 2 2 3 4 4 6 8 8 9 9 10 11 11 10 9 9 9 8 8 7 6 4 4 3 3 3 3 3 2 2 1 1 1 2 2 3 3 3 2 2 3 3 3 3
11 10 9 7 5 4 2 1 2 2 4 7 8 8 8 9 10 11 9 8 8 8 7 7 7 6 4 3 3 4 4 3 3 3 3 3 3 3 3 4 4 5 5 4 4 5 5 6 6
14 12 11 9 8 6 5 4 2 2 4 5 6 7 8 9 10 10 9 9 8 8 7 6 7 6 4 3 3 4 4 4 3 4 4 4 4 4 4 5 5 6 6 6 6 7 8 8 8
15 14 13 12 11 9 7 5 4 3 4 5 6 7 8 9 10 10 10 10 9 7 6 6 7 7 6 4 4 4 5 5 4 4 5 5 5 5 6 7 7 8 8 8 8 9 9 10 10
17 15 14 13 12 11 9 7 5 5 5 6 6 7 8 10 11 10 10 10 9 7 7 6 7 7 7 6 5 5 5 6 5 5 5 5 6 6 7 8 9 9 10 10 10 10 11 11 12
19 17 16 15 15 13 11 9 7 6 6 6 7 7 9 10 12 12 11 9 9 8 8 7 7 7 7 6 6 6 7 7 7 6 6 6 7 7 8 8 9 10 11 12 12 13 13 13 13
21 20 18 17 16 15 12 11 8 8 7 7 7 8 10 11 12 12 10 10 10 9 10 8 7 7 6 6 6 7 7 8 8 9 8 8 8 8 8 9 10 11 11 12 14 15 15 15 15
23 21 20 19 17 15 13 12 10 10 9 9 9 9 11 11 12 11 11 11 10 9 9 9 8 7 7 7 7 7 7 8 8 9 9 9 9 9 9 10 11 12 13 14 14 15 16 16 16
23 22 21 21 19 16 15 14 11 10 10 10 9 10 11 10 10 10 11 11 11 10 10 9 9 8 7 7 6 6 7 7 8 9 9 10 10 10 10 11 12 13 14 15 15 15 16 16 16
25 24 23 23 21 19 17 15 11 10 10 9 9 10 10 10 10 10 11 11 11 10 10 9 8 8 8 8 7 7 8 8 9 10 9 9 9 10 10 11 12 13 14 15 14 14 15 15 15
27 25 25 24 22 20 18 16 12 11 11 10 10 9 10 10 10 11 12 11 10 10 9 9 8 8 8 8 8 9 8 9 9 10 9 9 9 9 10 11 11 12 13 13 13 13 13 14 14
27 27 25 25 23 22 19 16 14 13 12 11 10 10 11 11 12 12 12 10 10 10 9 8 9 9 9 9 9 9 9 9 9 9 9 9 9 9 10 11 11 12 12 12 12 12 13 13 13
29 27 26 25 24 22 20 17 16 15 13 12 11 11 11 12 13 13 11 10 10 10 10 9 9 10 10 10 9 9 9 9 9 9 9 9 9 9 10 11 11 11 11 11 12 12 12 13 13

GEFSSGP_500_meanwind_204.txt.gz
Wind_Speed
19 18 18 18 19 17 17 18 17 17 16 17 16 15 15 14 13 12 12 11 10 10 10 10 9 10 10 11 12 13 13 13 13 14 13 13 13 12 12 12 11 11 11 11 10 10 9 10 10
18 18 18 19 18 16 17 18 18 17 16 16 15 15 14 14 13 12 12 11 10 9 9 9 10 10 10 11 11 12 12 12 13 13 13 13 12 12 11 11 11 11 11 10 10 10 9 9 10
17 17 18 18 15 15 16 17 17 17 16 16 15 15 14 13 13 12 11 11 10 9 8 9 9 9 9 10 11 11 12 12 12 12 12 12 12 12 12 11 11 11 10 10 9 9 9 9 9
16 17 17 16 15 15 15 16 17 18 17 16 15 15 14 14 13 12 11 10 9 8 8 8 8 8 9 10 10 10 11 11 12 12 12 12 12 12 11 11 10 10 10 10 9 8 8 9 9
15 16 15 14 15 15 16 16 17 18 17 16 15 15 15 14 13 12 11 10 9 8 7 7 7 7 8 8 9 9 10 11 11 11 11 11 11 11 10 10 9 9 9 9 8 8 8 9 9
14 15 12 13 14 15 16 16 17 17 17 16 16 16 15 15 14 12 11 10 9 7 6 6 6 7 7 8 8 8 9 9 10 10 10 10 10 10 10 9 9 9 9 8 8 8 8 9 9
13 12 12 13 14 15 15 16 17 17 17 17 16 16 15 15 14 12 11 10 8 7 6 5 6 7 6 7 7 7 8 8 8 8 9 9 9 9 9 9 8 9 9 9 9 9 9 8 9
12 11 10 11 13 13 14 15 17 17 17 16 16 16 15 15 14 13 12 10 8 7 6 6 5 5 5 6 6 6 7 8 8 8 8 8 8 8 8 8 8 8 8 8 8 8 8 8 9
11 10 8 9 11 11 12 14 16 16 16 17 17 16 15 15 14 12 11 10 8 7 6 5 5 4 4 5 6 6 7 7 7 7 7 7 7 7 8 8 8 8 8 8 8 7 8 8 8
10 8 8 9 10 11 12 13 14 15 16 16 16 16 15 15 14 13 11 10 8 6 5 5 5 4 4 5 5 6 6 7 7 7 7 6 7 7 7 7 8 8 8 8 7 7 7 7 7
8 8 8 9 10 11 12 12 13 14 15 15 15 15 15 14 14 13 12 10 8 7 5 5 4 4 4 5 5 5 5 5 6 6 6 7 6 6 6 7 7 7 7 7 7 7 6 6 6
6 6 7 8 9 10 11 11 11 13 13 13 14 14 14 14 14 13 12 10 9 8 7 6 5 5 5 5 5 5 5 5 5 5 6 6 6 6 6 6 6 6 6 5 5 6 6 5 5
4 4 5 6 8 8 9 10 10 11 12 12 12 12 12 13 13 13 12 10 9 8 7 6 5 5 5 5 5 5 5 5 4 4 4 5 6 6 6 6 6 5 5 5 4 4 4 5 5
3 3 4 5 6 7 7 8 9 10 11 12 11 12 12 12 12 12 11 10 9 8 7 6 6 5 5 5 4 5 5 5 5 4 5 5 5 5 5 5 5 5 4 4 3 3 3 4 3
2 2 2 3 4 5 5 7 7 9 10 11 11 11 11 11 11 11 11 9 9 8 7 6 5 5 4 4 4 4 4 4 4 4 4 4 4 4 4 4 4 3 3 3 2 3 2 2 2
2 2 1 1 2 3 4 4 5 6 8 10 10 10 10 11 11 11 10 9 8 8 7 6 5 5 4 4 3 2 2 2 2 2 3 3 3 3 3 2 2 1 1 2 2 2 2 1 1
3 3 3 2 1 1 2 2 3 5 7 8 9 9 10 10 11 11 11 9 8 7 6 5 5 4 4 3 2 2 2 1 0 0 1 1 1 2 2 1 1 1 1 1 1 1 2 2 2
6 4 4 3 2 2 1 1 3 4 5 6 7 8 9 10 11 11 11 11 9 7 6 5 4 4 3 3 3 2 2 2 1 1 1 0 1 1 1 1 1 1 1 2 2 2 3 3 4
8 6 6 4 3 3 1 2 3 4 5 5 6 7 9 10 10 11 11 10 10 8 6 5 5 4 3 3 3 3 3 3 2 2 2 2 2 3 3 2 2 3 2 3 3 4 4 5 5
9 7 7 6 4 4 2 3 3 4 4 5 6 7 9 10 10 10 10 10 9 9 7 5 4 4 4 4 4 4 4 3 3 3 3 3 3 4 4 5 4 4 4 5 6 6 7 7 7
11 9 9 7 5 4 2 3 4 4 4 4 6 7 9 10 11 11 11 10 10 9 8 6 6 5 5 5 5 5 5 4 4 4 4 5 5 5 6 6 6 6 7 7 8 8 8 9 9
13 11 11 9 7 6 3 4 6 5 5 5 6 7 8 9 11 12 13 11 11 10 9 7 7 6 6 7 6 6 6 6 6 6 6 6 6 6 6 7 7 8 9 9 9 10 10 11 11
15 13 12 11 9 8 6 4 6 6 6 7 7 7 8 9 11 12 13 12 11 11 10 9 8 8 7 7 7 7 7 7 7 7 7 7 6 7 7 7 8 8 9 9 10 10 11 12 13
17 15 13 12 11 10 8 6 6 6 6 7 8 8 8 9 10 12 12 12 11 11 11 9 9 9 8 8 8 7 7 7 8 8 8 8 8 8 8 8 9 9 9 10 11 12 13 13 14
18 16 14 13 13 12 9 7 8 7 6 7 7 8 8 9 10 11 12 12 12 12 11 10 10 9 8 8 8 8 8 9 9 9 9 9 9 9 10 10 10 10 11 11 12 13 13 13 14
19 18 16 14 13 12 12 10 8 7 7 7 7 8 9 9 10 11 12 12 12 11 11 10 10 9 8 8 8 9 9 10 10 10 10 9 9 10 10 10 11 11 11 11 12 13 13 13 13
22 20 18 16 15 13 13 11 9 8 8 7 7 8 9 10 10 11 12 12 11 11 11 10 9 9 9 9 8 9 9 9 9 9 9 9 9 9 9 9 10 10 11 11 12 12 12 12 12
23 21 20 18 17 14 14 12 10 10 9 8 8 9 9 10 11 11 12 12 11 11 11 10 10 9 9 9 9 9 9 9 8 9 9 9 9 9 9 9 10 10 11 12 11 11 11 11 12
25 23 21 20 19 15 13 13 12 11 10 10 10 10 10 10 11 11 12 11 11 10 11 10 10 9 9 10 9 9 9 8 8 9 9 9 9 8 9 9 9 10 10 11 11 10 11 11 12
27 25 23 21 20 17 14 14 13 11 11 11 12 11 11 11 11 11 11 11 10 10 11 10 10 10 9 9 9 9 9 9 9 9 8 8 8 8 9 9 10 10 10 10 11 11 11 12 12

GEFSSGP_500_meanwind_210.txt.gz
Wind_Speed
21 21 21 22 21 13 11 11 11 11 10 10 10 10 9 8 8 8 8 8 9 9 9 9 8 8 8 7 7 7 8 8 9 9 9 10 10 9 9 9 9 10 10 10 10 11 10 10 10
21 20 22 22 15 12 12 12 12 11 10 10 9 10 10 9 9 8 8 8 8 8 8 8 8 8 8 7 7 7 7 7 8 8 9 9 10 10 9 9 9 10 10 11 10 10 10 10 10
21 22 23 17 12 13 13 13 12 12 11 10 10 10 10 10 9 9 8 8 8 8 8 8 8 7 7 7 7 6 7 7 7 8 8 9 10 10 10 9 10 10 10 10 10 10 10 9 9
21 24 20 12 11 12 13 13 12 12 12 11 10 10 10 10 10 9 8 8 8 8 7 7 7 7 6 6 6 6 6 6 7 7 8 8 9 10 9 9 9 9 9 9 9 9 9 9 8
23 23 13 11 12 12 13 12 12 12 12 11 11 11 11 10 10 9 9 8 8 7 7 7 6 6 6 6 6 5 6 6 6 7 7 8 8 9 9 9 9 9 9 8 9 9 9 8 8
21 17 10 10 11 12 13 13 13 13 13 12 12 12 12 11 11 10 9 9 8 8 7 6 6 6 6 6 5 5 5 5 6 6 6 7 7 8 8 8 9 9 8 8 8 8 9 8 8
17 13 9 9 11 11 12 12 13 13 14 14 13 13 13 12 11 10 10 9 8 8 7 6 6 6 6 5 5 4 5 5 5 5 6 6 7 7 7 8 8 8 8 8 8 8 8 8 8
14 12 8 8 9 10 11 12 13 14 15 15 15 14 14 13 11 10 10 10 9 8 7 6 5 6 5 5 4 4 4 5 5 5 5 6 6 7 7 7 7 8 8 8 8 8 8 8 8
11 10 6 6 8 9 10 11 12 13 14 14 14 15 15 14 13 12 11 11 10 9 8 7 6 5 5 5 4 4 4 5 5 4 5 5 5 6 6 7 7 7 7 7 7 7 7 7 7
8 7 4 4 6 9 10 12 13 14 14 14 14 15 15 14 14 13 12 11 10 9 8 8 7 6 5 5 4 4 4 4 4 4 4 4 4 5 5 6 6 7 7 7 7 6 6 6 6
6 6 4 4 5 7 9 11 13 14 14 14 15 15 15 14 14 13 12 11 11 10 9 8 7 6 5 5 5 4 4 4 3 4 5 5 5 5 5 5 5 5 6 6 6 5 5 5 5
5 4 4 3 5 7 7 9 11 12 13 14 15 15 15 15 14 14 13 12 11 10 10 9 8 7 5 5 5 5 5 4 4 5 5 5 5 5 5 4 4 4 5 5 5 5 5 5 4
2 3 3 4 5 5 6 7 9 12 13 14 15 15 15 15 14 14 13 13 12 11 9 9 8 8 7 5 5 5 6 5 5 5 5 5 5 5 4 4 4 3 4 4 4 4 3 3 3
2 2 3 4 3 5 5 6 8 11 13 15 15 15 16 16 15 15 13 13 13 12 10 9 8 7 7 6 6 6 6 5 4 4 5 5 6 5 4 3 3 3 2 2 2 2 2 2 2
2 2 3 4 5 5 5 6 7 11 13 14 15 15 16 16 16 15 14 14 14 13 11 10 8 7 7 6 6 6 6 5 4 4 4 4 4 4 3 3 3 2 2 1 1 1 1 0 0
2 2 1 2 4 5 7 7 7 12 13 13 13 14 15 15 16 16 15 14 14 13 11 11 9 8 7 7 7 6 6 6 5 4 4 3 3 3 3 3 2 2 2 1 1 0 0 1 1
2 1 1 2 4 4 6 7 7 10 12 13 12 13 14 14 15 16 15 15 14 13 12 11 9 8 7 7 7 7 6 5 4 3 3 3 3 3 3 3 2 2 2 2 2 2 2 2 2
3 3 3 3 5 4 5 7 8 10 11 12 13 13 13 14 15 15 15 15 15 14 13 11 9 9 8 7 6 6 5 5 4 3 3 3 3 3 3 3 2 2 2 2 2 3 3 4 4
6 6 5 5 7 5 5 5 6 9 10 11 11 12 13 14 15 15 15 15 15 14 14 12 10 9 8 7 6 6 5 4 4 4 3 3 3 3 4 4 3 3 4 4 4 5 5 5 5
9 7 5 7 9 6 6 6 6 8 10 10 10 11 12 13 14 15 15 15 15 14 13 12 10 9 8 7 7 6 6 5 5 4 4 3 4 4 4 4 4 5 5 6 6 7 7 7 7
11 10 8 7 8 7 7 8 7 6 9 11 11 11 12 13 13 14 15 15 15 14 13 12 11 10 9 8 7 7 7 7 6 5 5 5 5 5 5 6 6 6 7 8 8 8 8 9 9
11 11 11 10 8 6 7 10 10 10 10 10 12 12 12 12 12 13 14 15 15 15 13 12 12 11 10 9 8 8 7 7 7 7 6 6 6 7 7 8 8 8 9 9 10 9 10 10 11
13 12 12 11 8 7 8 10 11 11 12 10 11 12 12 12 12 13 14 14 15 15 15 13 12 12 10 10 9 8 7 7 7 7 7 7 7 8 9 9 9 9 10 10 11 11 10 11 11
15 13 11 10 9 10 7 8 11 10 11 11 12 13 12 13 13 13 13 14 15 15 15 14 13 12 11 10 10 9 8 8 8 8 8 8 8 9 9 9 10 10 10 10 11 10 11 11 11
17 14 12 11 11 10 8 9 13 12 11 13 13 14 13 11 13 13 13 14 15 15 15 15 13 12 12 11 10 10 8 9 9 9 8 9 9 9 10 10 10 11 11 11 11 11 11 11 11
18 17 15 12 9 9 9 11 13 14 14 14 13 13 12 11 12 11 12 13 14 15 14 14 13 13 12 11 11 10 9 10 10 10 10 9 9 10 10 10 10 11 11 11 11 11 11 11 11
20 18 16 14 11 10 12 12 15 15 14 13 13 12 11 11 12 13 13 13 14 14 14 14 14 13 12 12 11 11 10 10 11 11 10 10 10 10 10 10 10 10 10 11 11 11 11 11 11
22 19 18 18 15 13 12 13 16 17 15 14 12 11 11 11 12 12 12 13 13 13 13 14 13 13 12 12 12 11 11 11 11 11 10 9 9 10 10 10 10 10 11 11 11 11 11 11 11
23 22 20 18 17 15 13 14 15 19 18 17 15 12 10 11 12 12 12 12 13 13 13 13 13 13 13 12 12 12 12 12 12 12 10 9 9 9 9 9 9 10 10 11 11 11 11 11 11
23 23 21 21 20 18 15 15 15 17 17 16 14 13 12 12 12 13 12 12 13 13 13 12 12 13 13 13 13 13 12 12 12 12 10 10 10 10 9 9 10 10 11 11 11 11 12 12 12

GEFSSGP_500_meanwind_216.txt.gz
Wind_Speed
20 21 21 21 21 20 21 21 19 17 15 15 15 14 13 12 11 11 10 10 12 12 12 12 11 11 11 10 9 9 9 9 8 8 7 8 8 8 8 9 9 10 10 10 11 11 11 11 11
19 20 21 22 22 21 21 21 19 16 16 15 15 14 13 11 10 9 10 10 12 12 11 11 11 10 10 10 9 9 9 8 8 8 7 7 7 8 8 8 8 9 9 10 10 10 11 11 12
18 19 20 22 22 22 22 22 20 17 16 15 15 14 12 10 10 9 9 10 11 12 11 11 10 10 10 10 9 9 9 8 8 8 7 7 8 8 8 9 9 9 9 9 10 10 11 11 11
17 19 20 21 22 23 23 22 21 18 17 16 16 14 12 11 12 11 10 11 12 12 11 11 10 10 10 10 9 9 9 8 8 8 8 8 8 8 8 9 9 9 9 9 9 10 10 10 11
16 18 19 20 21 22 23 22 21 19 18 18 17 15 14 13 12 11 11 12 12 11 11 10 10 10 9 9 9 9 9 8 7 8 8 8 8 9 9 8 8 8 8 8 8 9 10 10 10
14 17 18 20 20 20 22 21 20 19 19 19 18 17 16 14 13 12 12 12 11 11 10 10 9 9 9 9 9 8 9 8 7 7 8 8 8 8 8 8 7 7 8 8 8 9 9 9 9
14 15 17 18 19 19 20 20 20 21 21 20 18 17 16 16 14 13 12 11 11 10 10 9 9 9 9 9 9 9 8 8 7 8 8 7 7 8 8 7 7 7 7 7 8 8 9 9 8
13 14 15 17 17 18 19 19 19 20 20 20 20 19 18 16 14 14 13 12 11 10 10 10 9 9 9 9 9 8 8 7 7 7 7 7 7 7 8 7 8 8 8 8 8 8 8 8 8
11 11 14 15 16 16 18 19 19 20 20 20 21 21 19 18 15 14 13 13 12 11 11 10 9 9 9 9 9 8 7 7 7 7 7 7 6 7 7 7 8 8 8 8 8 8 8 8 7
9 10 13 14 15 16 17 18 19 19 20 20 21 21 20 18 16 14 15 13 12 11 11 10 10 9 10 9 8 8 7 6 7 7 7 7 7 7 7 7 7 7 7 7 7 7 7 7 7
9 9 11 13 15 16 17 18 18 19 20 20 20 21 20 19 16 14 15 14 13 12 11 11 11 10 10 10 9 9 8 7 7 7 7 7 7 7 7 6 6 6 6 6 6 6 6 6 5
7 8 9 12 13 14 15 17 19 19 19 19 20 20 20 19 17 16 16 15 14 13 12 11 11 11 11 10 9 9 8 8 7 7 7 7 7 7 7 6 6 6 6 6 5 5 5 5 4
6 6 7 9 12 13 15 15 17 17 18 19 19 20 20 18 17 17 16 15 14 13 12 11 11 11 11 10 10 10 9 8 8 7 7 6 7 7 6 5 5 5 4 4 4 4 3 3 2
5 4 4 7 9 11 13 14 15 17 17 18 18 19 19 18 17 17 16 15 14 14 13 12 11 11 11 10 9 9 8 8 8 7 7 7 6 6 5 5 4 4 3 3 2 2 2 2 1
4 3 3 5 7 8 11 13 14 15 17 17 17 18 18 17 17 17 16 15 14 13 12 11 11 11 11 10 9 9 8 7 7 7 6 6 6 6 5 5 4 3 2 2 2 1 1 1 0
5 5 3 3 5 7 9 12 13 14 16 16 17 17 17 17 17 16 15 15 14 13 11 10 10 10 10 9 8 8 7 6 6 6 6 5 5 4 4 4 4 3 1 1 0 0 1 1 1
6 6 3 1 4 6 8 11 13 13 14 15 16 16 16 16 16 16 15 14 14 13 12 11 10 9 9 8 7 7 6 5 5 4 4 4 3 3 3 3 3 2 2 1 1 1 2 2 3
7 5 2 2 3 4 7 10 11 11 13 14 15 15 15 14 15 15 15 14 13 13 12 11 9 9 8 7 6 6 5 4 4 3 3 3 3 3 2 2 2 2 2 2 2 2 3 4 5
7 4 2 1 2 5 8 9 9 9 11 12 13 13 13 14 14 14 15 14 13 13 12 11 9 8 7 7 6 5 4 4 3 3 3 3 2 2 2 2 3 3 3 3 3 4 5 5 6
8 6 4 2 3 5 7 7 7 8 9 11 11 11 13 13 12 13 14 15 13 13 12 11 9 8 7 7 6 6 5 4 3 2 2 3 3 3 3 3 3 4 5 5 5 6 7 8 8
12 9 8 6 6 6 6 5 7 7 8 10 10 10 12 11 10 12 13 13 13 12 12 11 10 8 7 6 7 6 5 4 3 2 3 3 3 4 4 5 5 6 6 7 7 8 8 9 9
13 12 11 10 8 7 7 6 6 7 8 9 10 10 11 12 12 11 12 13 12 11 11 10 9 8 7 7 6 6 5 4 3 3 4 4 5 5 6 6 6 7 7 7 7 7 8 9 9
14 13 13 12 10 9 10 10 8 7 7 9 9 10 11 13 12 11 12 12 11 11 11 10 10 8 8 7 7 6 6 4 4 4 4 5 5 6 6 7 7 7 7 8 8 7 8 8 8
16 16 16 15 13 11 10 11 10 8 7 9 9 10 12 13 12 11 11 11 10 10 10 10 10 9 8 7 7 7 6 5 4 4 4 5 5 6 7 7 8 9 8 8 8 8 8 8 8
19 19 19 17 15 11 10 11 10 7 8 9 10 11 12 12 12 11 10 10 10 9 10 10 10 9 8 7 7 7 6 5 5 5 5 6 6 7 7 7 8 9 8 9 9 9 9 9 9
20 20 19 18 15 12 11 10 9 7 8 9 11 11 13 12 12 11 10 10 10 10 9 9 9 9 8 7 7 7 6 6 6 6 6 7 7 7 7 7 8 8 8 9 9 8 9 9 9
22 21 19 18 16 15 13 11 10 8 8 9 11 13 13 12 11 11 10 10 11 10 10 10 9 9 8 7 7 7 7 6 7 6 7 6 6 6 6 7 8 8 8 8 7 8 9 9 9
23 21 21 20 19 18 16 14 11 9 9 10 12 13 13 12 11 10 10 10 10 11 10 10 10 9 8 7 7 8 7 7 7 7 7 6 6 6 6 7 7 7 7 7 7 7 8 8 9
24 23 22 22 21 20 18 15 12 11 10 11 12 13 13 13 12 11 10 9 9 10 10 10 10 9 9 8 8 8 8 7 7 7 7 6 6 7 6 7 7 7 7 7 7 7 8 9 9
24 24 22 23 23 22 21 17 13 12 11 11 12 14 14 12 10 9 9 9 10 10 10 10 10 9 9 9 8 8 8 8 8 8 8 8 7 7 7 8 8 7 7 8 8 9 9 10 10

GEFSSGP_500_meanwind_222.txt.gz
Wind_Speed
21 21 20 20 21 19 21 22 21 20 18 17 16 15 15 13 12 12 12 11 10 10 10 11 11 13 13 13 13 13 12 12 11 11 10 10 10 10 10 11 11 11 11 11 11 11 11 11 11
21 21 21 21 21 21 22 23 23 20 19 19 18 16 15 13 11 11 11 10 9 10 11 11 12 12 13 14 14 13 12 12 12 12 11 11 11 11 10 10 11 11 10 10 10 10 10 10 10
20 21 20 20 21 22 23 23 22 21 19 19 18 17 15 12 11 10 10 10 9 10 11 12 12 12 12 13 13 13 12 12 12 11 11 11 11 11 10 10 11 10 10 10 10 10 10 10 11
19 21 20 21 22 23 23 23 22 21 20 18 18 17 14 12 11 11 10 10 9 10 11 11 12 12 12 12 12 12 12 12 12 11 11 11 11 11 11 11 10 10 10 10 10 10 10 10 10
18 20 20 21 22 22 23 23 23 22 20 18 18 17 14 12 11 11 10 9 9 10 11 11 11 11 12 11 11 11 12 12 12 11 12 12 11 11 10 10 10 9 9 10 10 10 9 9 9
17 19 20 21 22 22 23 23 23 21 20 19 18 17 15 12 12 12 11 10 9 10 11 11 11 11 11 11 11 11 11 11 11 11 11 11 11 11 10 9 9 9 9 9 9 10 9 9 9
16 18 19 20 21 22 23 23 23 22 20 20 18 17 16 14 13 12 11 11 10 10 11 10 11 11 11 11 11 11 11 12 11 11 11 10 10 10 10 9 9 9 9 9 9 9 9 9 9
16 18 19 20 20 21 22 22 22 21 21 20 19 18 16 14 13 12 12 12 11 11 10 10 11 11 10 10 10 10 11 11 11 10 10 10 10 9 10 9 9 9 9 9 9 9 9 8 8
16 17 18 19 20 21 21 22 21 21 20 20 20 19 17 15 13 12 12 12 12 11 10 10 11 11 11 10 10 10 10 10 10 10 10 10 10 10 10 9 9 8 8 8 8 8 7 7 7
14 16 17 19 20 21 21 21 21 20 20 20 20 19 18 16 14 13 13 12 12 12 12 11 11 10 11 11 11 11 10 10 10 9 9 9 10 9 9 9 8 8 7 7 7 7 6 6 6
12 14 16 18 19 20 20 20 20 20 19 19 19 18 18 16 15 14 13 13 12 13 12 11 11 10 10 10 11 10 10 10 9 9 8 8 9 9 9 8 8 7 7 7 7 6 6 5 5
9 11 14 16 17 19 20 19 19 19 19 19 19 18 17 16 15 15 14 13 12 12 12 11 11 10 9 10 10 10 10 10 9 9 8 8 8 8 8 8 8 7 7 7 6 5 4 4 3
6 9 12 14 16 17 18 19 19 19 19 19 19 18 17 16 15 14 14 13 12 12 11 11 10 10 10 10 10 10 9 9 9 8 8 7 7 7 7 7 6 6 5 5 4 3 3 3 3
4 6 9 11 14 15 16 17 17 18 17 18 18 18 18 17 15 15 14 13 12 12 12 11 9 9 9 9 10 9 9 9 8 8 7 7 6 6 6 6 5 5 4 3 3 2 3 2 2
2 3 7 9 10 12 14 15 15 16 16 16 17 18 17 17 15 14 13 13 12 11 11 11 10 9 8 8 9 8 8 8 8 7 7 6 5 5 5 4 4 4 3 3 2 1 1 1 1
0 2 4 7 8 10 11 13 14 15 15 15 16 17 16 16 15 14 14 12 11 10 10 10 10 8 7 7 7 7 6 7 6 6 5 5 5 4 4 3 3 3 3 2 1 1 2 2 2
2 1 3 4 6 8 9 11 12 13 14 14 15 15 16 16 15 14 14 13 11 10 9 8 8 8 7 6 5 5 5 5 4 4 4 4 4 4 3 2 3 3 2 2 2 2 3 3 4
4 2 1 2 4 5 7 9 10 10 12 13 13 14 15 15 15 14 14 13 13 10 8 7 7 6 6 5 4 4 3 3 3 3 2 2 2 2 2 3 3 3 3 3 3 3 4 4 5
7 4 2 0 1 3 5 7 8 9 10 11 13 13 14 14 14 14 13 13 13 11 9 8 6 6 5 5 5 4 3 3 2 2 1 1 1 1 2 2 3 3 4 5 5 6 6 7 7
9 7 5 3 1 1 2 4 6 7 8 10 11 12 13 13 13 13 13 13 12 12 10 9 7 6 5 5 5 4 3 3 2 2 2 2 2 2 3 3 3 4 5 6 7 7 7 8 9
11 9 8 6 4 2 1 2 4 5 7 9 10 10 12 13 13 13 12 12 12 11 11 10 9 8 6 6 5 4 4 3 3 2 2 3 3 3 4 5 6 6 7 7 7 7 8 9 9
12 11 10 9 7 5 3 2 2 3 5 7 8 9 11 11 11 12 11 11 11 11 10 10 9 8 7 7 6 5 4 4 4 3 2 3 3 4 6 7 7 8 8 8 9 9 9 10 10
15 14 13 11 10 8 6 5 3 3 4 6 7 8 10 10 11 10 10 10 11 11 10 9 9 8 7 7 6 6 4 4 4 4 4 4 5 6 7 8 8 8 9 9 10 10 10 10 10
18 16 15 13 12 11 9 7 4 3 4 5 6 7 9 10 11 10 9 10 11 12 10 8 8 8 7 7 7 6 6 5 5 5 5 5 7 7 8 9 9 9 10 10 10 10 10 11 11
21 19 18 16 15 12 10 9 6 5 4 4 5 7 8 10 10 10 9 10 11 11 9 8 7 7 7 7 7 7 7 6 6 6 6 6 7 8 8 9 9 9 10 10 11 11 11 11 11
23 21 20 18 16 14 13 11 8 6 6 5 5 7 7 8 9 9 9 9 10 10 9 8 8 8 8 8 8 8 8 8 7 7 7 7 7 8 8 8 8 9 9 9 9 10 10 11 11
24 24 22 20 19 17 16 13 10 8 6 6 6 7 7 8 8 9 10 9 9 9 9 9 9 8 8 9 9 9 8 8 8 7 7 7 8 8 8 8 8 9 9 8 9 9 10 11 11
26 25 24 22 21 20 19 16 13 10 8 7 6 7 7 7 8 9 10 9 9 9 8 8 9 9 9 9 10 10 9 9 9 8 8 8 8 8 8 7 8 8 8 8 9 10 10 11 11
28 27 26 25 23 22 20 17 14 12 10 8 6 6 7 8 9 9 9 9 9 9 8 8 8 9 9 10 10 10 9 9 9 8 8 8 8 9 8 8 8 8 9 9 10 10 11 11 11
30 28 27 26 24 23 21 18 15 14 12 10 8 8 8 8 8 8 8 9 9 8 8 8 8 9 9 10 10 10 10 9 9 9 9 9 10 10 9 9 9 9 10 10 11 11 12 12 13